RH
78 79 79 80 80 80 80 81 82 83 85 86 87 89 92 96 99 100 100 100 99 100 99 98 97 96 96 97 95 94 93 92 92 90 88 84 80 78 76 73 72 71
79 80 80 80 81 81 81 80 81 82 82 84 85 86 88 90 94 96 98 99 99 99 100 99 98 97 97 97 96 96 96 95 95 94 94 94 93 91 89 87 84 82
77 78 77 78 77 77 79 79 80 81 80 82 82 83 85 86 88 90 92 95 97 98 99 99 100 99 99 99 97 97 97 97 96 94 93 94 94 93 92 91 88 86
64 66 66 67 67 68 69 70 72 74 74 75 76 77 79 80 83 85 87 89 92 95 97 98 99 99 100 100 99 99 99 99 99 97 96 95 93 92 91 91 89 86
49 52 52 52 54 54 54 56 57 58 59 61 62 64 68 70 73 76 80 84 87 90 93 95 97 97 98 97 97 98 99 99 100 99 99 99 98 96 93 91 89 86
41 41 41 40 40 40 40 42 42 42 43 44 44 46 49 53 57 60 66 71 76 80 84 87 91 94 96 96 95 96 96 97 98 98 98 99 99 99 98 96 93 90
38 37 35 33 32 32 32 32 32 32 32 32 32 32 32 35 37 40 45 50 56 62 67 70 74 79 84 89 91 94 95 95 95 95 95 97 97 97 96 97 97 95
38 37 35 32 31 31 32 31 32 32 30 28 28 28 27 26 26 25 26 29 33 39 44 48 51 56 62 67 72 79 86 92 95 95 95 94 95 95 94 94 97 98
38 37 36 35 35 36 35 34 34 34 32 31 30 29 28 27 26 23 21 21 21 21 24 28 31 35 41 48 52 57 63 73 83 90 95 97 96 96 96 95 94 94
44 43 42 41 42 41 41 39 38 36 34 34 33 31 29 28 27 25 23 22 19 18 18 18 19 21 26 35 43 49 52 55 64 76 84 88 92 94 95 97 97 95
51 51 51 51 50 48 47 44 42 39 36 35 33 30 28 28 28 27 27 25 22 20 18 17 19 18 19 29 39 46 53 52 52 67 77 76 81 90 94 96 99 98
56 57 57 58 56 54 53 51 47 42 36 33 32 29 28 27 28 30 31 29 25 21 19 18 19 18 21 33 43 53 70 69 51 52 70 80 84 91 95 95 96 96
60 61 61 62 60 59 58 56 54 46 37 34 31 29 28 27 29 32 32 31 26 21 21 20 20 21 21 31 51 71 91 95 73 54 64 86 90 83 85 92 97 96
64 65 65 64 62 63 62 61 60 51 40 36 32 30 30 30 34 37 36 33 27 24 23 20 21 23 20 34 70 93 98 101 96 83 81 93 91 73 68 79 94 100
65 65 64 64 64 66 67 67 63 52 42 39 35 33 33 32 39 45 42 37 32 29 25 22 25 24 26 56 92 102 99 99 101 99 97 99 96 82 68 65 75 92
62 60 59 60 62 66 69 67 59 49 44 42 38 38 36 37 48 55 49 42 40 37 30 29 32 26 38 80 104 98 99 102 98 100 101 99 99 94 81 64 56 66
59 58 58 58 62 65 65 61 54 49 50 47 43 43 41 45 57 59 52 47 46 43 37 38 40 31 47 91 106 96 100 102 98 100 100 99 101 98 89 75 57 45
59 58 60 62 64 64 61 57 54 53 54 51 50 50 49 53 59 56 54 58 57 50 45 50 50 37 49 89 104 98 100 101 99 101 100 99 100 93 84 75 67 59
61 59 61 64 63 62 60 56 55 58 58 57 58 57 57 60 59 53 56 66 68 59 53 62 64 52 63 93 103 98 100 100 99 100 100 97 94 88 78 68 72 84
62 60 61 64 62 61 58 53 56 60 58 61 66 65 66 66 59 56 62 68 68 61 59 68 68 62 80 102 102 98 101 100 99 100 97 93 92 90 81 75 85 98
64 63 64 65 62 60 55 52 57 60 58 66 74 71 69 66 60 62 69 68 64 62 65 68 56 54 82 104 102 99 101 99 99 99 96 97 99 94 80 79 94 102
67 67 67 66 61 57 54 54 59 62 64 74 78 73 69 65 61 66 70 69 66 66 69 69 55 50 73 96 101 100 100 100 100 99 99 101 98 90 81 85 98 102
71 70 68 65 60 55 55 57 62 68 74 79 81 82 80 73 69 72 74 74 74 71 74 79 69 58 67 88 102 102 99 101 100 98 100 99 93 91 91 93 95 92
74 72 68 63 57 55 56 60 66 74 79 80 84 89 86 80 77 79 79 78 78 78 83 87 81 70 69 85 101 102 99 102 101 99 101 98 96 96 89 82 80 80
75 72 67 60 56 55 57 63 70 75 75 74 80 85 86 83 81 81 81 78 78 84 86 84 83 78 72 83 101 104 100 103 103 100 97 92 90 88 83 82 88 91
74 70 64 58 55 55 57 60 63 66 69 74 80 85 88 87 83 82 83 79 78 83 82 79 83 82 75 83 99 102 99 102 102 95 90 89 91 93 94 98 100 97
Wind_Speed
28 28 28 28 27 26 25 26 26 26 25 26 26 25 24 23 22 22 20 19 17 17 16 14 13 11 10 8 6 5 4 2 2 2 2 4 5 6 7 7 7 7
28 28 28 28 27 26 26 25 25 26 25 25 24 24 24 23 22 22 21 20 19 18 17 15 14 13 11 10 9 8 7 5 3 2 1 2 3 5 7 9 10 10
28 28 28 28 27 26 26 26 25 25 24 24 23 23 22 22 21 21 21 21 20 19 18 16 15 14 12 11 10 9 9 8 7 5 2 1 0 2 4 7 9 10
28 28 28 28 27 27 26 27 27 26 25 25 24 23 22 21 21 20 20 20 20 20 19 18 16 15 14 12 11 11 10 9 8 6 4 4 3 2 2 4 6 7
29 30 30 29 29 28 28 28 28 27 27 26 25 24 23 23 22 22 21 20 20 19 19 18 17 16 15 14 13 13 12 11 9 7 5 5 4 3 2 3 3 4
29 29 30 30 30 30 30 30 29 28 28 26 26 26 24 24 23 23 22 21 20 20 19 19 18 17 16 14 14 14 13 13 11 10 8 8 6 5 3 2 2 2
29 29 29 30 30 30 30 30 29 29 28 26 26 26 25 24 24 23 22 21 20 19 19 19 18 17 16 15 15 14 14 13 12 11 10 10 9 8 6 5 4 4
29 29 29 29 30 30 30 29 28 28 27 26 26 25 24 24 23 23 22 20 19 19 18 18 18 17 16 15 15 14 14 13 12 12 11 11 10 10 9 8 7 5
29 28 28 29 30 30 30 29 28 27 26 26 26 25 24 23 23 22 21 21 20 19 18 17 17 17 16 15 15 14 13 12 12 11 11 11 11 11 11 10 9 8
27 27 28 29 29 29 29 28 28 27 26 25 25 25 24 23 22 22 21 20 20 20 19 17 16 16 15 15 14 14 13 12 11 10 10 10 10 10 10 11 10 10
26 26 26 27 28 27 27 27 27 27 26 26 25 25 25 24 23 22 21 21 21 20 19 18 16 15 14 14 14 14 13 13 11 10 9 9 9 9 9 10 10 10
23 24 24 25 25 25 25 26 26 27 27 26 25 24 24 24 23 22 21 21 21 20 19 18 16 14 13 13 14 14 15 15 13 11 10 10 10 9 9 9 10 11
21 21 22 22 23 23 23 24 25 25 26 26 25 24 24 23 23 21 20 20 20 20 19 18 16 14 13 13 14 16 17 16 16 14 12 11 12 11 10 9 10 10
20 19 20 20 20 20 21 22 23 24 25 25 24 23 23 22 21 20 19 19 20 20 19 17 16 15 14 14 17 18 17 16 16 15 14 13 14 14 12 10 9 10
18 18 18 18 18 19 19 20 21 22 23 23 23 22 22 20 18 18 18 19 19 19 18 17 16 15 14 16 18 19 17 16 15 14 14 14 15 16 15 12 10 10
16 16 17 17 18 18 18 19 20 22 22 23 22 21 21 19 16 16 18 19 19 19 18 17 15 14 13 15 17 17 16 16 16 15 15 15 16 17 17 16 14 12
15 15 16 17 17 17 18 19 21 22 22 22 22 21 20 17 16 16 18 18 18 18 17 16 15 13 13 16 17 16 15 16 15 15 14 14 16 18 19 19 17 15
14 15 16 16 17 17 18 20 22 22 23 23 22 21 19 17 17 17 18 17 17 18 17 15 14 13 13 16 18 17 16 16 14 13 13 15 17 18 19 19 18 16
14 15 16 16 17 18 19 22 23 23 23 23 22 21 19 18 19 19 17 17 18 19 18 15 14 14 14 17 19 18 16 15 13 13 14 16 17 18 18 17 16 16
14 15 16 17 18 20 22 24 23 22 23 22 21 21 20 20 20 19 18 18 19 19 17 15 14 15 17 18 18 17 15 14 14 14 15 16 16 16 17 15 14 15
14 15 16 18 19 21 24 24 23 22 23 22 21 21 21 21 21 20 19 19 19 19 18 16 16 16 17 18 17 16 15 14 15 16 14 13 13 14 16 14 13 14
13 15 16 18 20 23 24 23 22 22 22 22 21 21 22 22 21 21 20 21 20 19 19 19 17 15 15 16 16 16 16 15 16 15 13 11 13 15 15 14 13 14
13 15 17 19 22 24 23 22 21 21 21 21 21 22 22 23 23 22 21 21 20 19 19 19 17 14 14 15 16 16 16 16 16 15 13 13 14 14 13 13 14 16
13 16 18 20 22 23 21 20 20 20 19 20 20 21 22 22 22 21 20 19 19 17 17 17 16 14 13 14 16 16 16 16 16 15 14 14 14 14 14 15 16 16
15 18 20 21 22 21 20 19 19 19 19 19 19 20 20 20 20 20 19 18 16 16 15 15 16 14 13 14 15 15 15 16 15 15 16 17 17 18 19 17 13 12
18 20 22 23 22 21 20 19 20 20 19 19 19 18 19 19 18 18 18 16 15 15 15 15 15 14 13 13 14 15 15 16 17 18 20 21 21 21 19 14 11 12
Wind_Direction
83 82 82 81 78 75 73 72 70 67 65 63 61 60 59 59 63 68 67 68 70 68 67 67 66 67 66 67 72 83 99 121 142 162 189 198 203 211 221 230 235 242
81 82 82 80 78 76 75 75 73 70 67 66 65 63 63 63 64 67 67 67 68 68 68 68 68 67 64 60 59 66 70 69 69 74 130 183 219 229 233 238 239 243
79 79 79 78 76 75 74 74 73 71 68 66 66 64 62 63 63 64 66 66 66 65 66 68 69 71 70 67 64 65 63 59 55 51 61 84 283 241 238 245 244 246
78 78 77 76 76 74 72 71 69 67 66 63 62 62 61 60 60 61 61 62 63 63 62 64 67 69 73 74 73 72 68 62 59 56 55 48 25 347 295 280 264 258
75 76 76 76 76 75 72 69 65 63 63 62 60 59 59 57 56 55 56 56 58 59 59 59 61 64 66 69 69 68 67 65 65 68 70 59 45 28 340 316 294 274
73 73 74 75 75 74 71 68 65 63 61 61 60 57 55 55 53 51 51 51 52 53 54 53 53 55 57 59 61 59 58 57 57 62 62 56 50 46 30 354 325 301
73 72 72 74 74 71 69 67 64 62 60 58 59 57 54 52 51 49 48 46 47 47 49 48 46 46 47 49 51 51 50 49 48 50 49 45 40 34 29 20 4 342
72 71 70 70 69 67 64 63 61 59 57 55 54 52 52 50 49 48 47 45 44 44 44 44 42 39 38 40 42 42 43 43 42 41 39 37 34 29 24 20 15 6
71 69 68 66 64 62 59 57 55 53 51 50 48 45 45 44 43 43 44 43 42 41 40 39 39 38 35 35 36 34 35 36 36 37 34 30 28 24 20 16 11 7
68 65 63 61 59 57 54 51 49 47 45 44 41 39 38 37 36 36 36 37 36 35 34 33 33 34 33 32 31 29 27 25 27 29 27 23 20 15 12 10 6 2
65 61 58 56 53 51 48 45 43 41 39 37 34 32 31 30 30 30 28 28 28 27 27 27 26 26 27 27 25 25 20 13 14 17 14 12 13 10 6 3 359 353
63 59 56 52 49 46 42 39 37 34 33 31 28 26 25 25 25 25 23 22 20 20 21 21 19 19 21 19 17 18 14 4 1 4 4 1 359 358 357 355 354 348
64 59 56 51 45 42 38 34 32 29 27 25 23 22 21 20 20 20 19 16 13 14 16 14 14 14 13 14 14 14 8 358 353 353 353 351 344 340 343 345 349 349
67 60 55 49 42 39 35 30 28 24 21 19 18 18 17 16 15 14 13 11 8 9 10 10 10 9 9 12 11 8 2 354 351 350 349 345 336 330 330 331 335 339
69 61 54 46 40 35 31 27 23 18 14 14 14 14 13 12 11 9 7 5 4 4 5 7 8 7 10 11 4 359 354 348 347 346 343 340 333 329 325 320 315 315
66 56 47 41 36 31 26 21 16 11 10 10 10 10 10 10 9 6 2 360 360 0 1 3 6 6 9 4 355 351 348 343 340 339 336 334 332 329 326 322 317 307
57 46 39 35 32 26 20 13 8 6 6 6 6 6 7 8 7 1 358 357 357 357 356 357 360 4 3 354 348 347 345 341 337 333 329 327 327 327 326 324 320 313
47 38 35 33 27 20 12 6 3 3 2 1 2 2 3 4 2 357 356 357 355 354 353 351 352 358 357 348 343 343 342 339 332 326 324 324 323 323 322 320 320 319
37 32 30 26 19 11 4 0 359 359 358 357 357 357 358 358 355 353 355 354 351 349 348 346 345 350 350 342 338 337 338 336 328 323 325 325 323 323 323 322 323 326
26 23 20 15 8 1 356 355 355 353 352 353 353 353 353 352 349 350 352 349 346 345 344 341 339 341 340 336 334 334 334 330 325 324 325 324 324 328 329 329 331 333
19 14 10 5 359 353 349 349 349 347 347 349 348 348 348 346 346 347 346 344 344 344 342 338 336 338 337 334 333 333 331 328 326 327 326 323 324 328 328 327 328 330
12 7 3 357 352 348 346 346 345 343 343 344 342 341 342 342 342 343 341 341 342 342 341 338 339 343 341 337 335 334 333 332 330 329 327 324 326 328 326 321 318 318
6 0 356 352 347 346 344 343 341 340 340 340 338 338 339 339 338 338 338 339 339 341 342 341 343 349 348 340 337 335 335 334 332 331 328 326 327 328 323 315 310 309
1 356 352 348 345 343 341 338 337 337 336 336 335 334 334 334 335 335 336 339 341 343 344 343 344 350 350 342 337 335 336 336 334 331 330 331 332 329 324 319 315 313
353 349 347 345 342 339 335 334 333 332 331 330 331 331 332 333 334 334 334 339 343 345 346 345 343 346 349 344 338 336 338 339 337 337 338 338 335 330 327 326 324 321
344 342 341 340 337 333 330 327 326 326 328 330 330 331 331 331 332 334 334 337 343 344 344 343 342 344 349 347 341 338 338 338 340 341 341 336 331 327 327 327 325 321